STARLINK-11276, 61244

Orbit data source: Space-Track

STARLINK-11276, 61244 is a payload satellite owned by SpaceX/Seattle (US) in LEO that was launched on Wed, 25 Sep 2024 UTC via an FALCON 9 launch vehicle from the Air Force Western Test Range (AFWTR). Payload-class satellites include a variety of spacecraft equipped with specific instruments for various scientific and technological missions. These include communications satellites like Starlink; space stations such as the ISS; scientific satellites like the Hubble; Earth observation satellites from companies like Planet Labs, Umbra, and HawkEye 360; GPS; miniature CubeSats for education and research; and military/defense satellites.

Loading next visibility...
Identifier
61244, 2024-175B
Orbit
LEO
Last TLE update
21 hours ago
Origin
Manufacturer
SpaceX/Seattle
Mission
Operational Commercial Communications
Bus & Motor
STARLINK V2M, Unknown motor
Mass
730 kg wet, ~700 kg dry
Launch date (UTC)
2024-09-25 (9 months ago)
Launch vehicle
FALCON 9
Launch site
Air Force Western Test Range (AFWTR)
Object type
Payload
Rocket body
Debris
Shape & HBR
Box + 2 Pan, 29 m
Radar Cross Section
36.964 m², Large (>1 m²)

Expand to show TLE details & history

TLE from 21 hours ago
0 STARLINK-11276
1 61244U 24175B   25181.53826004 -.00002512  00000-0 -15894-4 0  9994
2 61244  53.1579 219.2513 0000844  93.1347 266.9767 15.69693397 43766
Epoch: 2025-06-30T12:55Z
TLE epoch observation values (Epoch: 2025-06-30T12:55:05.667Z)
Latitude
-0.00006°
Longitude
106.63102°
Altitude
360.719 km
Speed
7.694 km/s
True Right ascension
14h 37m 00s
True Declination
0° 00' 00"
Sunlit
Object was in full shadow at epoch
Visualization orbit readout
Latitude
-1.72883°
Longitude
-76.32062°
Altitude
360.9 km
Speed
7.694 km/s
Apparent Right ascension
05h 04m 34s
Apparent Declination
-29° 42' 21"
Sunlit
Object is in daylight
Visualization observer readout
Local Sidereal Time
21:11:37
Azimuth
98.649° ESE
Elevation
-39.283°
Doppler factor
1
Orbital elements
Apogee altitude
360.604 km
Perigee altitude
359.467 km
Semi-major axis
6,738.172 km
Eccentricity
0.00008
Inclination
53.1579°
RAAN
219.2513°
Arg. of periapsis
93.1347°
True anomaly
Unknown
Mean anomaly
266.9767°
Eccentric anomaly
Unknown
Mean motion
3.92401 °/min
Orbital period
91.74 mins
BSTAR
-0.000015894
Loading maneuver chart data...
Loading SW <> Apogee altitude chart data...
Loading historical data...
Loading historical data...
Loading historical data...
Loading historical data...
Loading historical data...
Loading historical data...
Loading historical data...

STARLINK-11276 Visibility forecast

Observer location: undefined°, undefined°

Span
Click to sort rows by Start time (UTC) header in descending order
Start Az.
Max El. time (UTC)
Max El. Az.
Max El.
End time (UTC)
End Az.
4 mins2025-07-02 04:50:19.663Z223.321° SW2025-07-02 04:52:19.663Z109.893° ESE44.205°2025-07-02 04:54:19.663Z53.573° ENE
|